Regional Weather Roundup
Issued by NWS

Home | Current Version | Previous Version | Graphics & Text | Print | Product List | Glossary On
Versions: 1 2 3 4 5 6 7 8 9 10 11 12 13 14 15 16 17 18 19 20 21 22 23 24 25 26 27 28 29 30 31 32 33 34 35 36 37 38 39 40 41 42 43 44 45 46 47 48 49 50
000
ASUS43 KIND 241710
RWRIN

WEATHER ROUNDUP FOR INDIANA
NATIONAL WEATHER SERVICE INDIANAPOLIS IN
100 PM EDT TUE APR 24 2018

NOTE: "FAIR" INDICATES FEW OR NO CLOUDS BELOW 12,000 FEET WITH NO
SIGNIFICANT WEATHER AND/OR OBSTRUCTIONS TO VISIBILITY.

* - STATION DOES NOT REPORT WEATHER SUCH AS PRECIPITATION OR FOG.

+ - STATION NOT QUALITY CONTROLLED BY THE NATIONAL WEATHER SERVICE.
    USE DATA WITH CAUTION...ESPECIALLY DEWPOINT AND RELATIVE
    HUMIDITY OBSERVATIONS.

INZ001>003-010>013-019-020-241800-
NORTHWEST INDIANA

CITY           SKY/WX    TMP DP  RH WIND       PRES   REMARKS
GARY /AIRPORT/ PTSUNNY   57  46  67 N9        30.05S
KNOX *+        CLOUDY    59  50  72 NE5       30.01F
LA PORTE +     CLOUDY    59  50  73 E7        30.02F
MICHIGAN CITY+ CLOUDY    59  50  72 NE3       30.03F
MONTICELLO +   CLOUDY    57  50  79 E5        29.99F
VALPARAISO     CLOUDY    61  51  70 NE8       30.02F

$$

LMZ046-743>745-241800-
SOUTHERN LAKE MICHIGAN

STATION/POSITION TIME  TEMP WIND        PRES
                       AIR  DIR/SP/G
                 (UTC) (F)  (DEG/KT/KT) (MB)
BURNS HARBOR     1640   44   10/  3/  4 1017.9S
MICHIGAN CITY    1640   44   10/  6/  8   N/A

$$

INZ004-005-014>016-021>024-241800-
NORTH CENTRAL INDIANA

CITY           SKY/WX    TMP DP  RH WIND       PRES   REMARKS
ELKHART        CLOUDY    57  48  72 E7        30.02F
GOSHEN         CLOUDY    58  50  75 E9        30.01F
LOGANSPORT +   CLOUDY    54  50  87 E8        30.01S
PERU/GRISSOM   DRIZZLE   55  55 100 NE7       29.98F FOG
ROCHESTER +    CLOUDY    55  54  94 NE3       30.02S FOG
SOUTH BEND     CLOUDY    57  48  72 E5        30.03F
WARSAW +       CLOUDY    55  50  82 E8        30.01F

$$

INZ006>009-017-018-025>027-241800-
NORTHEAST INDIANA

CITY           SKY/WX    TMP DP  RH WIND       PRES   REMARKS
ANGOLA *+      CLOUDY    55  48  76 E12       30.02F
AUBURN +       CLOUDY    55  50  82 E9        30.02F
FORT WAYNE     CLOUDY    57  51  80 E10       30.00F
HUNTINGTON +   CLOUDY    56  50  80 E7        29.99F

$$

INZ028-029-035-036-043>045-051>053-241800-
WEST CENTRAL INDIANA

CITY           SKY/WX    TMP DP  RH WIND       PRES   REMARKS
LAFAYETTE      CLOUDY    57  52  83 NE12      29.98F
TERRE HAUTE    CLOUDY    57  52  83 N7        29.97F

$$

INZ030>032-037>040-046>048-054>057-064-065-241800-
CENTRAL INDIANA

CITY           SKY/WX    TMP DP  RH WIND       PRES   REMARKS
ANDERSON       CLOUDY    54  52  94 NE6       29.98F
COLUMBUS       CLOUDY    54 N/A N/A NE5       29.95F
FRANKFORT +    CLOUDY    56  54  93 NE8       30.00F FOG
GREENWOOD *+   CLOUDY    54  53  96 NE6       29.96F
INDIANAPOLIS   DRIZZLE   54  53  97 NE8       29.96F FOG
-EAGLE CREEK   CLOUDY    55  52  89 NE7       29.96F FOG
KOKOMO +       CLOUDY    55  52  89 NE8       29.99F
MARION +       CLOUDY    55  51  85 CALM      29.99S FOG
MT COMFORT *+  CLOUDY    54  54 100 E8        29.97S
SHELBYVILLE    CLOUDY    56  53  90 E8        29.95F
ZIONSVILLE +   DRIZZLE   53  52  97 E3        29.98S

$$

INZ033-034-041-042-049-050-058-059-241800-
EAST CENTRAL INDIANA

CITY           SKY/WX    TMP DP  RH WIND       PRES   REMARKS
MUNCIE         CLOUDY    56  53  90 E9        29.98S FOG

$$

INZ060-061-067>069-081>083-085>088-241800-
SOUTHWEST INDIANA

CITY           SKY/WX    TMP DP  RH WIND       PRES   REMARKS
EVANSVILLE     LGT RAIN  56  55  97 N8        29.95S
HUNTINGBURG *+ CLOUDY    56  54  93 NW8       29.94S

$$

INZ062-063-066-070>080-084-089>092-241800-
SOUTH CENTRAL AND SOUTHEAST INDIANA

CITY           SKY/WX    TMP DP  RH WIND       PRES   REMARKS
BLOOMINGTON    CLOUDY    55  53  93 NE6       29.95S FOG

$$




USA.gov is the U.S. government's official web portal to all federal, state and local government web resources and services.